SCP
0 0 -0 -0 -0 0 0 0 0 0 0 0 0 -0 0 0 0 1 0 0 0 0 -0 0 0 0 -0 -0 -0 -1 -1 -0 -0 -0 -0 -0 -0 0 0 0 0 0 0 0 0 0 0 0 0
-0 -0 -0 -0 -0 -0 0 0 0 0 0 0 0 -0 -0 -0 0 0 0 0 0 0 0 0 1 0 0 -0 -0 -0 -1 -1 -0 -0 -0 0 0 0 0 0 0 0 0 0 0 0 0 0 0
-0 -0 -0 0 0 0 0 0 0 0 0 0 0 0 0 0 0 0 0 0 0 0 0 0 0 0 0 0 -0 -0 -0 -0 -0 -0 -0 -0 0 0 0 0 0 0 0 0 0 0 0 0 0
-0 0 0 -0 0 0 0 0 0 0 0 0 0 -0 0 0 0 0 0 0 0 0 0 0 0 0 0 0 0 0 -0 -0 -0 -0 0 0 0 0 0 0 0 0 0 0 0 0 0 0 0
-0 -0 -0 0 -0 0 0 0 0 0 0 0 0 0 0 0 0 0 0 0 0 0 0 0 0 0 0 0 0 0 0 -0 0 0 0 0 0 0 0 0 0 0 0 0 0 0 0 0 0
-0 0 -0 0 0 0 0 0 0 0 0 0 0 0 1 0 0 0 0 0 0 0 0 0 0 0 0 0 0 0 0 0 0 0 0 0 0 0 0 0 0 0 0 0 0 0 0 0 0
-0 -0 -0 -0 0 0 0 0 0 0 0 0 0 0 0 0 0 0 0 0 0 0 0 0 0 0 0 0 0 0 0 0 0 0 0 0 0 0 0 0 0 0 0 0 0 0 0 0 0
-0 0 0 0 -0 0 0 0 0 0 0 0 0 0 0 1 0 0 0 0 0 0 0 0 -0 0 0 0 0 0 0 0 0 0 0 0 0 0 0 0 0 0 0 0 0 0 0 0 0
0 0 -0 -0 0 0 0 0 0 0 0 0 0 0 0 0 0 0 0 0 0 0 0 0 0 0 0 0 0 0 0 0 0 0 1 0 0 0 0 0 0 0 0 0 0 0 0 0 0
-0 -0 -0 0 0 0 0 0 0 0 0 0 0 0 0 0 0 0 0 1 0 0 0 0 0 0 0 0 0 0 0 0 0 0 0 0 0 0 0 0 0 0 0 0 0 0 0 0 0
-0 -0 0 0 0 0 0 0 0 0 0 0 0 0 0 0 0 0 0 0 0 1 0 0 0 0 0 0 0 0 0 0 0 0 1 0 1 1 1 1 0 0 0 0 0 0 0 0 0
-0 0 0 0 0 0 0 0 0 0 0 0 0 0 0 0 0 0 0 0 0 1 1 0 0 0 0 0 0 0 0 0 0 0 1 1 1 1 1 1 0 0 0 0 0 0 0 0 0
0 0 0 0 0 0 0 0 0 -0 0 0 0 0 0 0 0 0 0 0 0 1 1 1 0 0 0 0 0 0 1 1 1 1 1 1 1 1 0 0 0 0 0 0 0 0 0 0 0
0 0 0 0 0 0 0 0 0 0 0 0 0 0 0 0 0 0 0 0 0 1 1 1 1 0 0 0 0 1 1 1 1 2 1 1 1 1 1 1 1 0 0 0 0 0 0 0 0
0 0 0 0 0 0 0 0 0 0 0 0 0 0 0 0 0 0 0 0 0 1 1 1 1 1 1 0 0 1 1 1 1 2 1 1 1 1 1 1 1 0 0 0 0 0 0 0 0
0 0 0 0 0 0 0 0 0 0 0 0 0 0 0 0 0 0 0 0 1 1 1 2 1 1 0 0 0 1 1 1 1 2 2 1 1 1 1 1 1 1 0 0 0 0 0 0 0
0 0 0 -0 0 0 0 0 0 0 0 0 0 0 0 0 0 0 0 0 0 0 1 2 1 1 1 1 1 1 1 1 1 2 2 2 1 1 1 1 2 1 1 0 0 0 0 0 0
0 0 0 0 0 0 0 0 0 0 0 0 0 0 0 0 0 0 0 0 1 2 3 3 2 2 1 1 1 1 1 2 2 2 2 2 2 2 2 2 2 1 1 0 0 0 0 0 0
0 0 0 0 0 0 0 0 0 0 0 0 0 0 0 0 0 0 0 0 0 0 1 1 1 1 1 1 1 1 1 1 1 1 2 1 2 2 2 1 1 1 0 0 0 0 0 0 0
0 0 0 0 0 0 0 0 0 0 0 0 0 0 0 0 0 0 0 0 0 0 0 0 0 0 0 1 1 1 1 1 1 1 1 1 1 1 1 1 1 1 0 0 0 0 0 0 0
0 0 0 0 0 0 0 0 0 0 0 0 0 0 0 0 0 0 0 0 0 0 0 0 0 0 0 1 1 2 1 1 1 1 1 1 1 1 1 0 0 0 0 0 0 0 0 0 0
0 0 0 0 0 0 0 0 0 0 0 0 0 0 0 0 0 0 0 0 0 0 0 0 0 0 0 0 0 0 0 0 0 0 1 1 1 1 1 1 0 0 0 0 0 0 0 0 0
0 0 0 0 0 0 0 0 0 0 0 0 0 0 0 0 0 0 0 0 0 0 0 0 0 0 0 0 0 0 0 0 0 0 0 0 1 0 1 1 0 0 0 0 0 0 0 0 0
0 0 0 0 0 0 0 0 0 0 0 0 0 0 0 0 0 0 0 0 0 0 0 0 0 0 0 0 0 0 0 0 0 0 0 0 0 0 1 0 0 0 0 0 0 0 0 0 0
0 0 0 0 0 0 0 0 0 0 0 0 0 0 0 0 0 0 0 0 0 0 0 0 0 0 0 0 0 0 0 0 -0 -0 -0 0 0 0 0 0 0 0 0 0 0 0 0 0 0
0 0 0 0 0 0 0 0 0 0 0 0 0 0 0 0 0 0 0 0 0 0 0 0 0 0 0 0 0 0 0 -0 0 0 0 0 0 0 0 0 0 0 0 0 0 0 0 0 0
0 0 0 0 0 0 0 0 0 0 0 0 0 0 0 0 0 0 0 0 0 0 0 0 0 0 0 -0 -0 -0 -0 -0 0 0 0 0 0 0 0 0 0 0 0 0 0 0 0 0 0
0 0 0 0 0 0 0 0 0 0 0 0 0 0 0 0 0 0 0 0 0 0 0 0 -0 -0 -0 -0 -0 0 0 0 0 0 0 0 0 0 0 0 0 0 0 0 0 0 0 0 0
0 0 0 0 0 0 0 0 0 0 0 0 0 0 0 0 0 0 0 0 0 0 0 0 0 -0 0 0 0 0 0 0 0 0 0 0 0 0 0 0 0 0 0 0 0 0 0 0 0
0 0 0 0 0 0 0 0 0 0 0 0 0 0 0 0 0 0 0 0 0 0 0 0 0 0 0 0 0 0 0 0 0 0 0 0 0 0 0 0 0 0 0 0 0 0 0 0 0
Wind_Speed_500mb
3 8 8 14 14 15 31 10 15 12 15 5 5 12 14 23 29 9 1 9 25 34 49 53 49 46 40 35 33 31 32 31 31 31 28 27 26 25 21 17 14 13 14 15 13 12 11 9 8
3 10 14 23 18 22 15 19 20 7 11 14 18 15 19 21 15 12 5 12 28 32 45 54 49 45 39 35 31 31 31 31 31 31 30 28 26 24 20 17 15 15 16 15 13 12 11 9 8
5 13 27 12 25 22 15 14 7 9 7 10 5 13 6 24 13 10 13 22 32 32 40 46 46 43 40 36 33 32 31 31 31 31 30 27 25 22 19 17 16 16 16 14 13 11 10 9 8
10 16 22 19 27 3 20 12 14 7 7 2 7 11 11 14 5 8 17 26 31 32 36 43 47 43 39 35 33 32 31 30 30 29 28 25 23 21 19 17 15 15 14 13 11 11 9 9 8
19 24 22 22 27 8 4 12 1 7 5 6 13 9 21 14 17 17 19 26 29 31 33 41 43 40 37 35 34 32 31 30 29 27 26 25 23 21 19 17 16 15 14 11 10 10 9 9 8
31 19 22 22 25 11 11 9 3 3 2 6 12 9 19 13 13 16 21 27 30 32 30 42 43 40 37 35 33 32 30 29 27 26 26 25 23 20 19 17 15 13 16 10 10 11 9 10 9
30 21 27 28 10 12 14 10 10 2 3 7 6 23 19 15 14 19 22 26 29 31 29 42 44 42 37 35 34 33 31 29 28 27 26 24 22 21 19 18 17 18 21 16 14 14 13 13 11
39 23 34 19 19 26 18 19 11 17 14 8 10 2 24 11 16 19 22 25 28 31 30 36 45 44 42 40 37 34 32 30 29 28 27 25 25 24 22 21 21 25 24 21 20 19 17 17 15
23 24 26 29 19 20 16 20 11 13 18 9 6 6 9 12 17 19 21 22 25 27 29 31 37 42 43 42 41 38 34 33 32 32 31 30 27 28 27 26 27 28 28 25 24 22 20 18 17
28 24 35 14 7 9 20 16 16 16 30 25 22 10 10 14 18 22 24 24 26 28 33 33 37 37 38 33 36 41 39 38 38 38 37 32 24 27 25 30 31 29 29 28 27 25 21 16 12
33 32 35 7 18 16 18 24 25 29 31 20 21 21 20 17 18 20 23 25 29 31 34 37 36 34 35 34 31 32 32 34 35 36 38 32 27 41 36 33 33 34 34 31 31 28 23 16 17
36 38 33 34 19 20 24 25 24 30 33 22 11 17 17 22 20 23 24 23 24 27 28 31 34 36 36 32 33 28 32 33 33 39 46 40 48 40 34 30 19 21 25 20 23 19 17 25 26
26 30 39 25 31 26 26 29 32 35 32 33 30 30 27 28 28 24 24 23 23 26 28 31 33 33 33 37 31 33 34 39 38 41 47 46 43 40 32 30 28 26 27 24 28 24 24 23 22
28 22 36 30 33 31 30 32 36 30 31 29 31 29 33 30 32 32 28 25 23 25 26 27 30 34 34 34 37 35 41 37 39 45 48 48 45 38 35 38 33 31 29 29 31 31 30 28 26
26 29 34 39 44 38 38 36 44 42 22 25 18 14 13 8 17 26 28 26 28 26 27 27 33 45 47 38 38 40 44 42 37 45 51 48 49 45 43 37 39 30 31 34 33 32 30 28 29
24 30 32 35 43 33 20 33 33 29 27 31 20 16 17 8 5 2 11 17 21 25 25 28 28 35 35 29 31 38 43 36 46 53 51 46 49 48 46 45 38 35 33 33 35 34 32 32 32
35 27 38 41 19 20 28 31 37 31 26 24 20 23 18 14 6 7 6 3 12 23 27 24 26 27 27 28 28 31 38 38 41 53 47 45 45 44 49 46 47 44 39 37 35 35 34 34 34
36 36 31 37 21 24 34 35 26 40 35 32 28 25 21 16 9 11 13 11 8 12 24 34 38 32 27 26 26 29 30 40 45 42 47 46 52 49 50 53 50 58 49 43 40 41 37 36 35
40 27 28 19 30 14 24 32 31 33 43 38 23 30 26 20 17 16 18 19 19 20 18 13 6 12 19 24 25 25 31 33 39 46 51 49 48 54 54 53 48 52 59 54 52 52 49 46 41
46 41 37 32 31 22 29 39 39 36 38 36 41 39 33 26 23 22 22 21 24 25 24 22 19 14 4 9 12 8 10 14 20 25 33 42 54 62 65 66 62 56 68 72 64 67 57 56 56
44 44 36 35 21 24 29 43 48 44 60 48 29 29 38 36 27 23 26 25 23 24 24 22 21 19 18 16 4 3 5 9 13 15 21 26 30 36 41 49 58 60 70 84 78 77 74 70 68
45 41 37 35 32 34 35 36 37 13 24 24 34 35 38 38 30 25 24 23 22 20 20 18 17 17 17 17 8 0 9 13 13 14 16 21 31 36 39 43 49 52 57 82 86 81 86 74 71
42 29 34 34 33 36 44 30 30 38 30 28 30 43 42 37 34 29 24 22 17 13 12 12 12 12 13 13 12 8 9 14 19 23 32 36 40 41 43 47 49 53 53 64 85 84 85 87 81
27 27 20 24 25 37 41 40 42 39 36 46 41 47 47 42 34 27 23 18 12 8 5 5 8 8 11 15 16 17 20 23 25 29 33 32 33 35 45 47 47 53 58 61 65 88 93 94 94
37 27 19 21 27 37 33 37 37 33 13 45 45 52 47 41 34 28 21 16 9 2 3 5 9 12 16 20 24 24 27 30 33 30 31 34 35 36 40 48 49 49 53 61 63 72 96 103 104
43 38 26 25 28 33 35 30 23 18 9 47 55 53 46 38 32 26 19 14 6 2 6 11 16 21 20 21 22 25 27 28 30 31 32 34 33 35 36 41 47 54 58 62 64 67 75 92 112
43 46 40 40 28 19 19 12 12 16 24 38 51 53 45 36 31 25 18 11 5 6 9 13 17 18 20 22 25 27 29 31 34 36 36 35 34 33 36 47 50 51 52 58 65 70 72 74 91
61 28 36 7 19 29 25 44 31 41 41 43 43 52 48 38 31 25 17 10 7 9 12 15 18 21 23 25 26 30 35 38 37 37 39 40 39 43 47 49 50 52 59 61 61 70 71 75 84
34 33 22 18 24 17 27 27 18 39 40 44 43 52 43 37 31 23 15 11 10 11 14 15 17 21 24 28 29 32 36 39 36 35 35 34 41 53 53 55 60 62 66 66 67 72 77 75 78
50 42 45 13 11 26 25 23 6 31 37 41 48 46 39 32 25 19 14 11 12 14 16 19 22 27 30 33 33 34 36 36 33 31 33 36 36 43 51 52 57 64 69 71 70 71 70 73 77
Wind_Direction_500mb
290 301 281 256 239 233 242 128 27 190 200 136 307 265 315 337 16 53 48 156 145 160 173 177 173 172 171 172 169 171 180 185 189 192 194 193 193 191 192 194 199 202 196 188 185 183 180 183 179
245 252 250 270 251 218 173 101 207 44 309 291 277 238 244 82 63 83 99 147 153 160 171 177 177 176 176 178 176 176 182 188 191 194 194 195 195 196 198 197 200 202 202 193 191 187 185 190 189
160 239 264 239 246 273 125 154 36 334 357 202 193 230 160 75 61 69 103 130 151 160 170 180 180 180 181 182 182 181 183 188 190 191 193 194 195 199 199 200 199 201 203 197 196 197 196 198 199
229 223 242 254 244 74 57 102 44 341 97 153 266 203 99 48 78 104 127 136 152 162 165 184 182 182 183 186 186 185 185 187 189 190 192 195 196 200 202 200 197 204 210 214 200 203 202 205 210
242 260 261 238 261 103 133 83 76 18 311 239 232 154 101 79 95 111 122 144 155 159 175 182 182 183 184 188 189 189 188 189 190 191 194 195 196 199 200 198 198 204 221 217 210 206 207 213 219
246 250 255 240 223 160 181 136 177 31 211 164 219 203 101 126 114 125 131 144 155 162 185 184 183 185 186 190 193 195 194 195 195 195 196 198 199 201 200 200 200 205 221 228 231 234 221 225 218
250 253 259 279 292 187 184 168 195 229 155 98 230 223 108 144 143 138 145 150 160 169 184 183 185 187 189 193 197 199 199 199 200 200 202 202 205 209 209 209 206 210 229 242 241 235 233 241 240
259 262 267 244 247 238 138 213 189 240 136 188 234 14 136 166 155 149 152 164 169 177 181 187 193 194 193 195 200 203 206 205 206 206 208 206 211 213 214 220 219 220 235 236 242 242 243 247 246
249 266 250 242 203 239 138 225 175 258 252 205 110 13 102 152 168 166 166 175 177 182 184 182 184 196 200 201 203 204 208 209 211 211 212 211 216 216 222 220 225 232 238 240 245 246 246 245 242
237 242 254 350 308 264 183 223 251 251 222 202 178 164 150 165 184 189 192 195 192 189 189 191 190 190 197 190 211 208 212 213 215 218 219 213 199 225 216 228 229 235 242 243 246 247 243 238 233
239 248 280 243 246 258 227 229 243 244 245 239 200 172 182 190 194 203 205 207 208 201 196 193 194 195 190 189 206 199 206 207 213 213 221 207 213 224 208 232 243 234 237 244 244 242 236 208 205
250 260 272 280 261 255 253 254 258 244 250 263 213 233 233 208 209 214 218 213 209 206 203 197 199 198 198 198 203 211 209 216 217 219 220 214 215 222 206 230 225 226 250 224 249 237 216 218 205
248 261 270 262 263 254 262 253 249 248 245 248 248 247 240 237 225 224 226 224 218 208 205 198 197 201 205 201 211 210 218 224 220 229 239 233 221 227 217 217 221 223 222 215 220 215 222 227 223
258 281 270 258 254 247 249 252 237 237 241 243 241 243 235 230 238 238 230 232 224 216 208 204 202 206 209 206 206 223 217 221 233 228 238 238 228 228 233 214 220 224 222 223 219 214 217 211 215
259 264 262 248 247 248 251 257 243 234 205 234 203 213 218 239 254 249 244 240 235 226 217 208 210 220 232 228 209 214 221 217 229 232 237 237 231 230 231 224 224 230 228 220 220 221 217 214 210
247 245 257 252 230 228 232 260 217 188 201 208 194 191 202 177 147 225 259 248 238 227 220 216 221 227 243 237 232 220 223 229 222 232 242 237 237 237 236 232 227 225 226 230 224 220 217 214 212
228 250 236 246 195 224 205 250 143 166 196 206 215 208 190 171 108 59 44 249 229 217 221 217 233 242 235 234 243 237 227 222 234 238 240 240 242 247 238 235 240 227 224 228 226 224 217 219 213
230 228 231 260 179 212 245 236 255 177 205 220 212 220 202 178 131 94 78 88 117 171 192 208 218 233 241 238 234 236 236 230 228 241 248 248 245 247 246 248 251 239 228 221 224 219 218 217 218
263 277 278 196 240 236 256 263 250 225 215 221 216 213 204 175 147 120 102 95 97 94 100 114 167 237 258 246 240 240 240 245 246 240 241 249 248 251 256 256 257 246 229 226 227 224 210 210 212
247 252 247 257 261 240 261 260 259 247 246 234 218 203 193 180 164 138 121 107 97 95 91 90 88 79 88 247 283 256 260 289 280 274 265 261 257 256 262 264 262 256 244 234 226 229 217 212 206
230 240 234 248 242 214 250 263 260 253 239 238 233 204 182 188 173 155 136 121 109 99 92 88 83 73 73 90 151 322 352 338 332 313 308 283 266 260 260 261 261 255 247 243 237 233 226 212 208
232 227 238 249 252 251 246 267 264 115 187 201 204 194 184 178 175 162 143 128 118 106 99 87 76 67 65 94 78 56 309 309 308 301 289 275 271 273 266 263 263 263 257 246 239 237 234 217 213
234 255 238 231 255 267 251 256 249 254 192 193 185 184 177 178 177 167 154 143 131 109 90 78 58 38 16 7 352 341 306 297 296 289 291 278 266 270 270 263 269 271 263 255 243 230 227 224 216
208 240 238 240 250 252 248 253 253 249 239 183 180 184 177 174 172 166 160 155 143 110 92 37 26 2 338 334 331 323 312 305 298 293 289 286 281 271 270 272 267 263 267 264 257 250 234 232 225
201 221 229 237 226 249 244 238 239 238 241 170 170 176 175 174 174 175 172 171 168 146 23 0 329 326 326 322 319 312 305 298 295 295 292 290 287 287 283 279 279 275 273 273 270 262 252 239 233
208 213 227 247 248 263 237 235 234 48 109 145 164 171 173 177 182 183 181 181 188 279 314 320 325 326 317 312 306 303 300 296 288 286 281 278 278 277 274 277 281 282 280 276 274 273 270 260 246
202 218 237 262 259 280 257 222 116 148 157 151 163 167 175 183 187 189 192 190 213 269 298 302 308 300 295 292 292 290 291 290 287 284 283 283 283 284 283 285 278 274 270 274 277 271 266 262 257
233 206 209 207 225 237 235 237 251 176 172 168 165 174 181 186 189 193 200 207 242 268 287 286 288 292 296 301 300 297 295 294 289 282 280 280 282 284 289 290 288 289 286 278 273 276 275 275 269
197 213 205 220 232 243 263 253 353 174 176 176 171 179 181 191 196 200 206 223 250 268 282 284 292 293 299 307 304 294 291 287 287 276 275 276 276 279 283 287 291 293 291 287 279 276 276 273 272
209 196 194 196 191 235 257 263 1 152 172 177 172 175 186 193 198 210 215 228 257 279 291 302 307 313 312 307 300 293 291 283 277 275 273 273 279 285 289 291 292 294 292 290 289 284 281 278 280
Wind_Speed_850mb
3 8 8 14 14 15 31 10 15 12 15 5 5 12 14 23 29 9 1 9 25 34 49 53 49 46 40 35 33 31 32 31 31 31 28 27 26 25 21 17 14 13 14 15 13 12 11 9 8
3 10 14 23 18 22 15 19 20 7 11 14 18 15 19 21 15 12 5 12 28 32 45 54 49 45 39 35 31 31 31 31 31 31 30 28 26 24 20 17 15 15 16 15 13 12 11 9 8
5 13 27 12 25 22 15 14 7 9 7 10 5 13 6 24 13 10 13 22 32 32 40 46 46 43 40 36 33 32 31 31 31 31 30 27 25 22 19 17 16 16 16 14 13 11 10 9 8
10 16 22 19 27 3 20 12 14 7 7 2 7 11 11 14 5 8 17 26 31 32 36 43 47 43 39 35 33 32 31 30 30 29 28 25 23 21 19 17 15 15 14 13 11 11 9 9 8
19 24 22 22 27 8 4 12 1 7 5 6 13 9 21 14 17 17 19 26 29 31 33 41 43 40 37 35 34 32 31 30 29 27 26 25 23 21 19 17 16 15 14 11 10 10 9 9 8
31 19 22 22 25 11 11 9 3 3 2 6 12 9 19 13 13 16 21 27 30 32 30 42 43 40 37 35 33 32 30 29 27 26 26 25 23 20 19 17 15 13 16 10 10 11 9 10 9
30 21 27 28 10 12 14 10 10 2 3 7 6 23 19 15 14 19 22 26 29 31 29 42 44 42 37 35 34 33 31 29 28 27 26 24 22 21 19 18 17 18 21 16 14 14 13 13 11
39 23 34 19 19 26 18 19 11 17 14 8 10 2 24 11 16 19 22 25 28 31 30 36 45 44 42 40 37 34 32 30 29 28 27 25 25 24 22 21 21 25 24 21 20 19 17 17 15
23 24 26 29 19 20 16 20 11 13 18 9 6 6 9 12 17 19 21 22 25 27 29 31 37 42 43 42 41 38 34 33 32 32 31 30 27 28 27 26 27 28 28 25 24 22 20 18 17
28 24 35 14 7 9 20 16 16 16 30 25 22 10 10 14 18 22 24 24 26 28 33 33 37 37 38 33 36 41 39 38 38 38 37 32 24 27 25 30 31 29 29 28 27 25 21 16 12
33 32 35 7 18 16 18 24 25 29 31 20 21 21 20 17 18 20 23 25 29 31 34 37 36 34 35 34 31 32 32 34 35 36 38 32 27 41 36 33 33 34 34 31 31 28 23 16 17
36 38 33 34 19 20 24 25 24 30 33 22 11 17 17 22 20 23 24 23 24 27 28 31 34 36 36 32 33 28 32 33 33 39 46 40 48 40 34 30 19 21 25 20 23 19 17 25 26
26 30 39 25 31 26 26 29 32 35 32 33 30 30 27 28 28 24 24 23 23 26 28 31 33 33 33 37 31 33 34 39 38 41 47 46 43 40 32 30 28 26 27 24 28 24 24 23 22
28 22 36 30 33 31 30 32 36 30 31 29 31 29 33 30 32 32 28 25 23 25 26 27 30 34 34 34 37 35 41 37 39 45 48 48 45 38 35 38 33 31 29 29 31 31 30 28 26
26 29 34 39 44 38 38 36 44 42 22 25 18 14 13 8 17 26 28 26 28 26 27 27 33 45 47 38 38 40 44 42 37 45 51 48 49 45 43 37 39 30 31 34 33 32 30 28 29
24 30 32 35 43 33 20 33 33 29 27 31 20 16 17 8 5 2 11 17 21 25 25 28 28 35 35 29 31 38 43 36 46 53 51 46 49 48 46 45 38 35 33 33 35 34 32 32 32
35 27 38 41 19 20 28 31 37 31 26 24 20 23 18 14 6 7 6 3 12 23 27 24 26 27 27 28 28 31 38 38 41 53 47 45 45 44 49 46 47 44 39 37 35 35 34 34 34
36 36 31 37 21 24 34 35 26 40 35 32 28 25 21 16 9 11 13 11 8 12 24 34 38 32 27 26 26 29 30 40 45 42 47 46 52 49 50 53 50 58 49 43 40 41 37 36 35
40 27 28 19 30 14 24 32 31 33 43 38 23 30 26 20 17 16 18 19 19 20 18 13 6 12 19 24 25 25 31 33 39 46 51 49 48 54 54 53 48 52 59 54 52 52 49 46 41
46 41 37 32 31 22 29 39 39 36 38 36 41 39 33 26 23 22 22 21 24 25 24 22 19 14 4 9 12 8 10 14 20 25 33 42 54 62 65 66 62 56 68 72 64 67 57 56 56
44 44 36 35 21 24 29 43 48 44 60 48 29 29 38 36 27 23 26 25 23 24 24 22 21 19 18 16 4 3 5 9 13 15 21 26 30 36 41 49 58 60 70 84 78 77 74 70 68
45 41 37 35 32 34 35 36 37 13 24 24 34 35 38 38 30 25 24 23 22 20 20 18 17 17 17 17 8 0 9 13 13 14 16 21 31 36 39 43 49 52 57 82 86 81 86 74 71
42 29 34 34 33 36 44 30 30 38 30 28 30 43 42 37 34 29 24 22 17 13 12 12 12 12 13 13 12 8 9 14 19 23 32 36 40 41 43 47 49 53 53 64 85 84 85 87 81
27 27 20 24 25 37 41 40 42 39 36 46 41 47 47 42 34 27 23 18 12 8 5 5 8 8 11 15 16 17 20 23 25 29 33 32 33 35 45 47 47 53 58 61 65 88 93 94 94
37 27 19 21 27 37 33 37 37 33 13 45 45 52 47 41 34 28 21 16 9 2 3 5 9 12 16 20 24 24 27 30 33 30 31 34 35 36 40 48 49 49 53 61 63 72 96 103 104
43 38 26 25 28 33 35 30 23 18 9 47 55 53 46 38 32 26 19 14 6 2 6 11 16 21 20 21 22 25 27 28 30 31 32 34 33 35 36 41 47 54 58 62 64 67 75 92 112
43 46 40 40 28 19 19 12 12 16 24 38 51 53 45 36 31 25 18 11 5 6 9 13 17 18 20 22 25 27 29 31 34 36 36 35 34 33 36 47 50 51 52 58 65 70 72 74 91
61 28 36 7 19 29 25 44 31 41 41 43 43 52 48 38 31 25 17 10 7 9 12 15 18 21 23 25 26 30 35 38 37 37 39 40 39 43 47 49 50 52 59 61 61 70 71 75 84
34 33 22 18 24 17 27 27 18 39 40 44 43 52 43 37 31 23 15 11 10 11 14 15 17 21 24 28 29 32 36 39 36 35 35 34 41 53 53 55 60 62 66 66 67 72 77 75 78
50 42 45 13 11 26 25 23 6 31 37 41 48 46 39 32 25 19 14 11 12 14 16 19 22 27 30 33 33 34 36 36 33 31 33 36 36 43 51 52 57 64 69 71 70 71 70 73 77
Wind_Direction_850mb
290 301 281 256 239 233 242 128 27 190 200 136 307 265 315 337 16 53 48 156 145 160 173 177 173 172 171 172 169 171 180 185 189 192 194 193 193 191 192 194 199 202 196 188 185 183 180 183 179
245 252 250 270 251 218 173 101 207 44 309 291 277 238 244 82 63 83 99 147 153 160 171 177 177 176 176 178 176 176 182 188 191 194 194 195 195 196 198 197 200 202 202 193 191 187 185 190 189
160 239 264 239 246 273 125 154 36 334 357 202 193 230 160 75 61 69 103 130 151 160 170 180 180 180 181 182 182 181 183 188 190 191 193 194 195 199 199 200 199 201 203 197 196 197 196 198 199
229 223 242 254 244 74 57 102 44 341 97 153 266 203 99 48 78 104 127 136 152 162 165 184 182 182 183 186 186 185 185 187 189 190 192 195 196 200 202 200 197 204 210 214 200 203 202 205 210
242 260 261 238 261 103 133 83 76 18 311 239 232 154 101 79 95 111 122 144 155 159 175 182 182 183 184 188 189 189 188 189 190 191 194 195 196 199 200 198 198 204 221 217 210 206 207 213 219
246 250 255 240 223 160 181 136 177 31 211 164 219 203 101 126 114 125 131 144 155 162 185 184 183 185 186 190 193 195 194 195 195 195 196 198 199 201 200 200 200 205 221 228 231 234 221 225 218
250 253 259 279 292 187 184 168 195 229 155 98 230 223 108 144 143 138 145 150 160 169 184 183 185 187 189 193 197 199 199 199 200 200 202 202 205 209 209 209 206 210 229 242 241 235 233 241 240
259 262 267 244 247 238 138 213 189 240 136 188 234 14 136 166 155 149 152 164 169 177 181 187 193 194 193 195 200 203 206 205 206 206 208 206 211 213 214 220 219 220 235 236 242 242 243 247 246
249 266 250 242 203 239 138 225 175 258 252 205 110 13 102 152 168 166 166 175 177 182 184 182 184 196 200 201 203 204 208 209 211 211 212 211 216 216 222 220 225 232 238 240 245 246 246 245 242
237 242 254 350 308 264 183 223 251 251 222 202 178 164 150 165 184 189 192 195 192 189 189 191 190 190 197 190 211 208 212 213 215 218 219 213 199 225 216 228 229 235 242 243 246 247 243 238 233
239 248 280 243 246 258 227 229 243 244 245 239 200 172 182 190 194 203 205 207 208 201 196 193 194 195 190 189 206 199 206 207 213 213 221 207 213 224 208 232 243 234 237 244 244 242 236 208 205
250 260 272 280 261 255 253 254 258 244 250 263 213 233 233 208 209 214 218 213 209 206 203 197 199 198 198 198 203 211 209 216 217 219 220 214 215 222 206 230 225 226 250 224 249 237 216 218 205
248 261 270 262 263 254 262 253 249 248 245 248 248 247 240 237 225 224 226 224 218 208 205 198 197 201 205 201 211 210 218 224 220 229 239 233 221 227 217 217 221 223 222 215 220 215 222 227 223
258 281 270 258 254 247 249 252 237 237 241 243 241 243 235 230 238 238 230 232 224 216 208 204 202 206 209 206 206 223 217 221 233 228 238 238 228 228 233 214 220 224 222 223 219 214 217 211 215
259 264 262 248 247 248 251 257 243 234 205 234 203 213 218 239 254 249 244 240 235 226 217 208 210 220 232 228 209 214 221 217 229 232 237 237 231 230 231 224 224 230 228 220 220 221 217 214 210
247 245 257 252 230 228 232 260 217 188 201 208 194 191 202 177 147 225 259 248 238 227 220 216 221 227 243 237 232 220 223 229 222 232 242 237 237 237 236 232 227 225 226 230 224 220 217 214 212
228 250 236 246 195 224 205 250 143 166 196 206 215 208 190 171 108 59 44 249 229 217 221 217 233 242 235 234 243 237 227 222 234 238 240 240 242 247 238 235 240 227 224 228 226 224 217 219 213
230 228 231 260 179 212 245 236 255 177 205 220 212 220 202 178 131 94 78 88 117 171 192 208 218 233 241 238 234 236 236 230 228 241 248 248 245 247 246 248 251 239 228 221 224 219 218 217 218
263 277 278 196 240 236 256 263 250 225 215 221 216 213 204 175 147 120 102 95 97 94 100 114 167 237 258 246 240 240 240 245 246 240 241 249 248 251 256 256 257 246 229 226 227 224 210 210 212
247 252 247 257 261 240 261 260 259 247 246 234 218 203 193 180 164 138 121 107 97 95 91 90 88 79 88 247 283 256 260 289 280 274 265 261 257 256 262 264 262 256 244 234 226 229 217 212 206
230 240 234 248 242 214 250 263 260 253 239 238 233 204 182 188 173 155 136 121 109 99 92 88 83 73 73 90 151 322 352 338 332 313 308 283 266 260 260 261 261 255 247 243 237 233 226 212 208
232 227 238 249 252 251 246 267 264 115 187 201 204 194 184 178 175 162 143 128 118 106 99 87 76 67 65 94 78 56 309 309 308 301 289 275 271 273 266 263 263 263 257 246 239 237 234 217 213
234 255 238 231 255 267 251 256 249 254 192 193 185 184 177 178 177 167 154 143 131 109 90 78 58 38 16 7 352 341 306 297 296 289 291 278 266 270 270 263 269 271 263 255 243 230 227 224 216
208 240 238 240 250 252 248 253 253 249 239 183 180 184 177 174 172 166 160 155 143 110 92 37 26 2 338 334 331 323 312 305 298 293 289 286 281 271 270 272 267 263 267 264 257 250 234 232 225
201 221 229 237 226 249 244 238 239 238 241 170 170 176 175 174 174 175 172 171 168 146 23 0 329 326 326 322 319 312 305 298 295 295 292 290 287 287 283 279 279 275 273 273 270 262 252 239 233
208 213 227 247 248 263 237 235 234 48 109 145 164 171 173 177 182 183 181 181 188 279 314 320 325 326 317 312 306 303 300 296 288 286 281 278 278 277 274 277 281 282 280 276 274 273 270 260 246
202 218 237 262 259 280 257 222 116 148 157 151 163 167 175 183 187 189 192 190 213 269 298 302 308 300 295 292 292 290 291 290 287 284 283 283 283 284 283 285 278 274 270 274 277 271 266 262 257
233 206 209 207 225 237 235 237 251 176 172 168 165 174 181 186 189 193 200 207 242 268 287 286 288 292 296 301 300 297 295 294 289 282 280 280 282 284 289 290 288 289 286 278 273 276 275 275 269
197 213 205 220 232 243 263 253 353 174 176 176 171 179 181 191 196 200 206 223 250 268 282 284 292 293 299 307 304 294 291 287 287 276 275 276 276 279 283 287 291 293 291 287 279 276 276 273 272
209 196 194 196 191 235 257 263 1 152 172 177 172 175 186 193 198 210 215 228 257 279 291 302 307 313 312 307 300 293 291 283 277 275 273 273 279 285 289 291 292 294 292 290 289 284 281 278 280